Simultaneous Nadir Overpasses (SNOs) Predictions

Prediction of SNOs between GOES-14 and AQUA Satellite Orbit:

Table of predicted SNOs for the next 14.0 days since TLE Epoch: 10/9/2018
Index Date Time (GOES-14) GOES-14 Lat,Lon AQUA Lat,Lon Distance(km) Time Diff (sec)
1 10/11/2018 08:35:45 0.24,-104.11 0.35,-104.67 63.42 80
2 10/13/2018 08:20:53 0.25,-104.11 -0.26,-101.71 272.32 80
3 10/13/2018 20:42:17 -0.22,-104.08 -0.82,-106.91 321.36 80
4 10/15/2018 20:32:46 -0.22,-104.08 -0.20,-103.95 14.82 80
5 10/17/2018 20:20:34 -0.22,-104.08 0.43,-100.99 351.29 80
6 10/18/2018 08:41:49 0.20,-104.13 0.61,-106.16 230.77 80
7 10/20/2018 08:26:56 0.20,-104.12 0.04,-103.19 105.33 80
8 10/20/2018 20:48:21 -0.18,-104.06 -1.10,-108.39 492.31 80
9 10/22/2018 08:14:44 0.21,-104.12 -0.60,-100.23 441.63 80
10 10/22/2018 20:36:09 -0.18,-104.07 -0.46,-105.44 155.36 80




NCC Satellite Simultaneous Nadir Overpasses (SNOs) Prediction Service
